Location: Grand Lay
(47.3253°N, 0.9468°E)
Time: 17:09:47
(UTC+00:00)

Cosmos 407 Rocket - Pass Details

Date: 18 January 2026
Orbit: 738 x 782 km, 74.0° (Epoch: 16 February)

Event Time Altitude Azimuth Distance (km) Brightness Sun altitude
Rises 06:55:13 0° 227° (SW) 3,176 6.5 -7.1°
Reaches altitude 10° 06:57:44 10° 236° (SW) 2,262 5.6 -6.7°
Maximum altitude 07:02:25 35° 302° (WNW) 1,202 4.0 -6.0°
Drops below altitude 10° 07:07:12 10° 8° (N) 2,301 5.8 -5.3°
Sets 07:09:47 0° 17° (NNE) 3,238 6.7 -4.9°
